Quillayute, WA

2:00 AM PDT on July 23, 2017 (GMT -0700)
Quillayute

Weather History for KUIL - November, 2013

Change the Weather History Date:

Friday, November 22, 2013

  Actual Average Record
Temperature  
Mean Temperature 40 °F 43 °F  
Max Temperature 52 °F 49 °F 56 °F (1995)
Min Temperature 28 °F 37 °F 9 °F (1985)
Degree Days  
Heating Degree Days 25 22  
Month to date heating degree days 378 442  
Since 1 July heating degree days 1057 1532  
Cooling Degree Days 0 0  
Month to date cooling degree days 0 0  
Year to date cooling degree days 39 19  
Moisture  
Dew Point 29 °F    
Average Humidity 63    
Maximum Humidity 85    
Minimum Humidity 41    
Precipitation  
Precipitation 0.00 in 0.53 in 1.84 in (1986)
Month to date precipitation 6.78 11.32  
Year to date precipitation 81.34 82.35  
Sea Level Pressure  
Sea Level Pressure 30.51 in    
Wind  
Wind Speed 4 mph (ENE)    
Max Wind Speed 10 mph    
Max Gust Speed 14 mph    
Visibility 7 miles    
Events      
T = Trace of Precipitation, MM = Missing Value Source: NWS Daily Summary

Daily Weather History Graph

Daily Weather History Graph

Search for Another Location

Airport or City:

Trip Planner

Search our weather history database for the weather conditions in past years. The results will help you decide how hot, cold, wet, or windy it might be!

Date:

Astronomy

Nov. 22, 2013 Rise Set
Actual Time 7:35 AM PST 4:33 PM PST
Civil Twilight 7:00 AM PST 5:07 PM PST
Nautical Twilight 6:22 AM PST 5:46 PM PST
Astronomical Twilight 5:45 AM PST 6:23 PM PST
Moon 9:17 PM PST (11/22) 11:16 AM PST (11/22)
Length of Visible Light 10h 07m
Length of Day
8h 58m
Waning Gibbous, 77% of the Moon is Illuminated
Nov 22
Waning Gibbous
Nov 25
Last Quarter
Dec 2
New
Dec 9
First Quarter
Dec 17
Full

Hourly Weather History & Observations

Time (PST) Temp. Windchill Dew Point Humidity Pressure Visibility Wind Dir Wind Speed Gust Speed Precip Events Conditions
12:53 AM 30.9 °F 26.2 °F 26.1 °F 82% 30.61 in 7.0 mi East 4.6 mph - N/A   Clear
1:53 AM 30.0 °F 26.5 °F 26.1 °F 85% 30.60 in 8.0 mi ESE 3.5 mph - N/A   Clear
2:53 AM 30.9 °F - 27.0 °F 85% 30.60 in 8.0 mi Calm Calm - N/A   Clear
3:53 AM 32.0 °F 26.4 °F 27.0 °F 82% 30.58 in 8.0 mi East 5.8 mph - N/A   Clear
4:53 AM 32.0 °F - 27.0 °F 82% 30.58 in 8.0 mi Calm Calm - N/A   Clear
5:53 AM 30.9 °F 27.5 °F 25.0 °F 79% 30.58 in 8.0 mi East 3.5 mph - N/A   Clear
6:53 AM 28.9 °F - 24.1 °F 82% 30.57 in 8.0 mi Calm Calm - N/A   Clear
7:53 AM 28.0 °F - 24.1 °F 85% 30.57 in 6.0 mi Calm Calm - N/A   Clear
8:53 AM 36.0 °F 32.1 °F 28.9 °F 76% 30.58 in 7.0 mi East 4.6 mph - N/A   Clear
9:53 AM 39.9 °F 35.1 °F 30.0 °F 68% 30.55 in 6.0 mi East 6.9 mph - N/A   Haze
10:53 AM 46.0 °F - 30.9 °F 56% 30.55 in 7.0 mi Calm Calm - N/A   Clear
11:53 AM 48.9 °F - 28.9 °F 46% 30.53 in 7.0 mi ENE 3.5 mph - N/A   Clear
12:53 PM 51.1 °F - 28.9 °F 43% 30.51 in 7.0 mi ENE 8.1 mph - N/A   Clear
1:53 PM 52.0 °F - 30.0 °F 43% 30.48 in 7.0 mi ENE 6.9 mph - N/A   Clear
2:53 PM 50.0 °F - 32.0 °F 50% 30.46 in 7.0 mi ENE 6.9 mph - N/A   Clear
3:53 PM 46.9 °F - 32.0 °F 56% 30.45 in 7.0 mi ENE 8.1 mph - N/A   Clear
4:53 PM 44.1 °F 39.5 °F 30.9 °F 60% 30.45 in 8.0 mi NE 8.1 mph - N/A   Clear
5:53 PM 42.1 °F 38.4 °F 30.0 °F 62% 30.45 in 8.0 mi ENE 5.8 mph - N/A   Clear
6:53 PM 39.9 °F 37.8 °F 28.9 °F 65% 30.44 in 8.0 mi Variable 3.5 mph - N/A   Clear
7:53 PM 39.9 °F 35.8 °F 28.9 °F 65% 30.43 in 8.0 mi East 5.8 mph - N/A   Clear
8:53 PM 39.9 °F 35.8 °F 30.0 °F 68% 30.42 in 8.0 mi ENE 5.8 mph - N/A   Clear
9:53 PM 42.1 °F 40.2 °F 30.9 °F 65% 30.41 in 8.0 mi ENE 3.5 mph - N/A   Clear
10:53 PM 39.0 °F - 30.0 °F 70% 30.40 in 8.0 mi Calm Calm - N/A   Clear
11:53 PM 39.9 °F - 32.0 °F 73% 30.39 in 8.0 mi Calm Calm - N/A   Clear